Terminal Aerodrome Forecast
Issued by NWS Salt Lake City, UT

Home | Current Version | Previous Version | Text Only | Print | Product List | Glossary On
Versions: 1 2 3 4 5 6 7 8 9 10 11 12 13 14
000
FTUS45 KSLC 042339 CCA
TAFCDC
TAF COR
KCDC 042339Z 0500/0524 20016G26KT P6SM SKC
     FM050200 17008KT P6SM FEW200
     FM051800 19024G34KT P6SM FEW200=

USA.gov is the U.S. government's official web portal to all federal, state and local government web resources and services.